Weather History for Joplin, MO

Change the Weather History Date:

Wednesday, March 20, 2013

  Actual Average Record
Temperature  
Mean Temperature 36 °F 50 °F  
Max Temperature 45 °F 61 °F 81 °F (1975)
Min Temperature 27 °F 39 °F 12 °F (1965)
Degree Days  
Heating Degree Days 29 15  
Month to date heating degree days 423 359  
Since 1 July heating degree days 3539 3613  
Cooling Degree Days 0 0  
Month to date cooling degree days 0 0  
Year to date cooling degree days 1 1  
Moisture  
Dew Point 20 °F    
Average Humidity 64    
Maximum Humidity 100    
Minimum Humidity 28    
Precipitation  
Precipitation 0.00 in 0.11 in 2.03 in (1962)
Month to date precipitation 1.20 2.11  
Year to date precipitation 6.35 6.46  
Snow  
Snow 0.00 in - - ()
Month to date snowfall T  
Snow Depth 0.00 in    
Sea Level Pressure  
Sea Level Pressure 30.29 in    
Wind  
Wind Speed 8 mph (NNW)    
Max Wind Speed 21 mph    
Max Gust Speed 26 mph    
Visibility 9 miles    
Events      
T = Trace of Precipitation, MM = Missing Value Source: NWS Daily Summary

Daily Weather History Graph

Daily Weather History Graph

Search for Another Location

Airport:

Trip Planner

Search our weather history database for the weather conditions in past years. The results will help you decide how hot, cold, wet, or windy it might be!

Date:

Astronomy

Mar. 20, 2013 Rise Set
Actual Time 7:21 AM CDT 7:30 PM CDT
Civil Twilight 6:55 AM CDT 7:56 PM CDT
Nautical Twilight 6:24 AM CDT 8:26 PM CDT
Astronomical Twilight 5:54 AM CDT 8:57 PM CDT
Moon 1:13 PM CDT (3/20) 2:54 AM CDT (3/20)
Length of Visible Light 13h 00m
Length of Day
12h 08m
First Quarter, 59% of the Moon is Illuminated
Mar 20
First Quarter
Mar 27
Full
Apr 2
Last Quarter
Apr 10
New
Apr 18
First Quarter

Hourly Weather History & Observations

Time (CDT) Temp. Windchill Dew Point Humidity Pressure Visibility Wind Dir Wind Speed Gust Speed Precip Events Conditions
12:53 AM 32.0 °F - 30.0 °F 92% 30.26 in 10.0 mi Calm Calm - N/A   Clear
1:53 AM 32.0 °F - 28.0 °F 85% 30.27 in 10.0 mi Calm Calm - N/A   Clear
2:53 AM 28.0 °F 24.2 °F 26.1 °F 92% 30.29 in 9.0 mi West 3.5 mph - N/A   Clear
3:53 AM 28.9 °F - 27.0 °F 92% 30.27 in 8.0 mi Calm Calm - N/A   Clear
4:53 AM 30.9 °F - 28.0 °F 89% 30.28 in 8.0 mi Calm Calm - N/A   Clear
5:24 AM 26.6 °F 21.2 °F 26.6 °F 100% 30.28 in 2.5 mi NNW 4.6 mph - N/A   Mostly Cloudy
5:33 AM 28.4 °F 23.3 °F 26.6 °F 93% 30.28 in 6.0 mi NNW 4.6 mph - N/A   Mostly Cloudy
5:53 AM 30.9 °F 25.2 °F 30.0 °F 96% 30.31 in 9.0 mi NNW 5.8 mph - N/A   Scattered Clouds
6:53 AM 34.0 °F 26.6 °F 30.9 °F 89% 30.34 in 10.0 mi North 9.2 mph - N/A   Mostly Cloudy
7:53 AM 33.1 °F 24.4 °F 28.0 °F 82% 30.38 in 10.0 mi North 11.5 mph 23.0 mph N/A   Overcast
8:53 AM 33.1 °F 24.4 °F 16.0 °F 50% 30.40 in 10.0 mi North 11.5 mph 17.3 mph N/A   Mostly Cloudy
9:53 AM 35.1 °F 26.9 °F 15.1 °F 44% 30.41 in 10.0 mi NNE 11.5 mph - N/A   Partly Cloudy
10:53 AM 37.0 °F 29.3 °F 10.9 °F 34% 30.41 in 10.0 mi NNW 11.5 mph 21.9 mph N/A   Clear
11:53 AM 39.0 °F 32.3 °F 14.0 °F 36% 30.40 in 10.0 mi NNW 10.4 mph - N/A   Partly Cloudy
12:53 PM 42.1 °F 34.9 °F 15.1 °F 34% 30.38 in 10.0 mi WNW 13.8 mph 19.6 mph N/A   Clear
1:53 PM 43.0 °F 36.4 °F 16.0 °F 34% 30.34 in 10.0 mi NNW 12.7 mph 23.0 mph N/A   Clear
2:53 PM 44.1 °F 36.5 °F 14.0 °F 30% 30.31 in 10.0 mi NNW 17.3 mph 23.0 mph N/A   Clear
3:53 PM 44.1 °F 37.7 °F 15.1 °F 31% 30.27 in 10.0 mi NNW 12.7 mph 20.7 mph N/A   Clear
4:53 PM 44.1 °F 38.1 °F 15.1 °F 31% 30.25 in 10.0 mi NNW 11.5 mph 20.7 mph N/A   Clear
5:53 PM 43.0 °F 36.8 °F 15.1 °F 32% 30.22 in 10.0 mi NNW 11.5 mph 17.3 mph N/A   Clear
6:53 PM 39.9 °F 34.5 °F 15.1 °F 36% 30.20 in 10.0 mi NW 8.1 mph - N/A   Clear
7:53 PM 36.0 °F 33.3 °F 16.0 °F 44% 30.19 in 10.0 mi Variable 3.5 mph - N/A   Clear
8:53 PM 36.0 °F - 16.0 °F 44% 30.18 in 10.0 mi Calm Calm - N/A   Clear
9:53 PM 33.1 °F 28.7 °F 17.1 °F 52% 30.18 in 10.0 mi ENE 4.6 mph - N/A   Clear
10:53 PM 30.9 °F 25.2 °F 17.1 °F 57% 30.17 in 10.0 mi East 5.8 mph - N/A   Clear
11:53 PM 30.9 °F 26.2 °F 16.0 °F 54% 30.14 in 10.0 mi ESE 4.6 mph - N/A   Clear